Location: Clermont
(50.2608°N, 4.3172°E)
Time: 06:48:24
(UTC+00:00)

Cosmos 1707 - Pass Details

Date: 13 August 2020
Orbit: 515 x 531 km, 82.5° (Epoch: 26 September)

Event Time Altitude Azimuth Distance (km) Brightness Sun altitude
Rises 23:40:58 0° 350° (N) 2,690 7.7 -25.4°
Reaches altitude 10° 23:43:08 10° 351° (N) 1,793 6.5 -25.5°
Enters shadow 23:46:15 54° 0° (N) 650 3.4 -25.5°
